This is the latest recevied weather packets stored in our database for station/object EA1L-13. If no packets are shown the sender has not sent any weather packets the latest 10 day(s).
| Time | Temp. | Humidity | Pressure | Rain* | Wind** | Luminosity | Snow |
|---|---|---|---|---|---|---|---|
| 1778166005 | 15.56° C | 74% | 1006.3 hPa | 0.25 mm | - | - | - |
| 1778165104 | 15.56° C | 70% | 1006.7 hPa | 0 mm | - | - | - |
| 1778164205 | 16.11° C | 66% | 1007.2 hPa | 0 mm | - | - | - |
| 1778163305 | 16.11° C | 66% | 1006.8 hPa | 0 mm | - | - | - |
| 1778162404 | 17.22° C | 65% | 1006.5 hPa | 0 mm | - | - | - |
| 1778161504 | 17.22° C | 67% | 1006.6 hPa | 0 mm | - | - | - |
| 1778160605 | 16.67° C | 69% | 1006.7 hPa | 0 mm | - | - | - |
| 1778159704 | 16.11° C | 69% | 1007.2 hPa | 0 mm | - | - | - |
| 1778158804 | 16.67° C | 68% | 1007.2 hPa | 0 mm | - | - | - |
| 1778157904 | 16.67° C | 70% | 1007.3 hPa | 0 mm | - | - | - |
| 1778157005 | 16.11° C | 71% | 1007.3 hPa | 0 mm | - | - | - |
| 1778156104 | 15.56° C | 70% | 1007.4 hPa | 0 mm | - | - | - |
| 1778155205 | 15.56° C | 66% | 1007.9 hPa | 0 mm | - | - | - |
| 1778154304 | 15.56° C | 66% | 1008.2 hPa | 0 mm | - | - | - |
| 1778153405 | 15.56° C | 71% | 1008.2 hPa | 0 mm | - | - | - |
| 1778152504 | 15° C | 73% | 1008.1 hPa | 0 mm | - | - | - |
| 1778151604 | 15.56° C | 87% | 1008.2 hPa | 0 mm | - | - | - |
| 1778150704 | 15° C | 100% | 1008.3 hPa | 0 mm | - | - | - |
| 1778149804 | 15.56° C | 100% | 1008.6 hPa | 0 mm | - | - | - |
| 1778148904 | 16.11° C | 100% | 1008.7 hPa | 0 mm | - | - | - |
| 1778148004 | 15.56° C | 100% | 1008.8 hPa | 0 mm | - | - | - |
| 1778147104 | 15° C | 100% | 1008.8 hPa | 0 mm | - | - | - |
| 1778146205 | 15° C | 100% | 1008.9 hPa | 0 mm | - | - | - |
| 1778145305 | 14.44° C | 100% | 1009 hPa | 0 mm | - | - | - |
| 1778144404 | 13.89° C | 100% | 1008.8 hPa | 0 mm | - | - | - |
* Rain latest hour (hover to see other rain measurements)
** Current wind speed in m/s (hover to see current wind gust speed)